Location: Clanezzo
(45.7500°N, 9.6000°E)
Time: 13:45:58
(UTC+00:00)

DUCHIFAT 1 - Visible Passes

Search period start: 25 June 2022 00:00
Search period end: 05 July 2022 00:00
Orbit: 579 x 598 km, 98.0° (Epoch: 25 June)

Date Brightness Start Highest point End Pass type
(mag) Time Alt. Az. Time Alt. Az. Time Alt. Az.
25 Jun ? 01:41:09 10° NNE 01:45:15 51° E 01:48:40 14° S visible
26 Jun ? 01:48:44 10° NNE 01:52:54 62° ESE 01:56:23 14° S visible
27 Jun ? 01:56:21 10° NNE 02:00:32 76° ESE 02:04:06 14° S visible
28 Jun ? 02:03:58 10° NNE 02:08:10 89° WNW 02:11:48 14° SSW visible
29 Jun ? 00:38:45 10° ENE 00:39:50 11° E 00:40:54 10° ESE visible
29 Jun ? 02:11:36 10° N 02:15:47 75° WNW 02:19:30 13° SSW visible
30 Jun ? 00:45:32 10° ENE 00:47:32 13° E 00:49:32 10° ESE visible
30 Jun ? 02:19:15 10° N 02:23:23 62° WNW 02:27:11 12° SSW visible
01 Jul ? 00:52:40 10° NE 00:55:14 16° E 00:57:48 10° SE visible
01 Jul ? 02:26:55 10° N 02:31:00 51° WNW 02:34:52 11° SSW visible
02 Jul ? 00:59:56 10° NE 01:02:55 19° E 01:05:54 10° SE visible
02 Jul ? 02:34:35 10° N 02:38:35 43° WNW 02:42:32 10° SW visible
03 Jul ? 01:07:17 10° NE 01:10:35 22° E 01:13:42 11° SE visible
03 Jul ? 02:42:17 10° N 02:46:09 36° WNW 02:50:00 10° SW visible
04 Jul ? 01:14:41 10° NE 01:18:15 26° E 01:21:23 12° SSE visible
04 Jul ? 02:50:01 10° N 02:53:42 30° WNW 02:57:24 10° SW visible
